Year,Month,Day,Hour,Minute,Value (Times are PST for temperature in C)
2017,12,14,00,00,4.20
2017,12,14,00,01,4.20
2017,12,14,00,02,4.20
2017,12,14,00,03,4.20
2017,12,14,00,04,4.10
2017,12,14,00,05,4.10
2017,12,14,00,06,4.10
2017,12,14,00,07,4.10
2017,12,14,00,08,4.10
2017,12,14,00,09,4.10
2017,12,14,00,10,4.10
2017,12,14,00,11,4.10
2017,12,14,00,12,4.10
2017,12,14,00,13,4.10
2017,12,14,00,14,4.00
2017,12,14,00,15,3.90
2017,12,14,00,16,3.90
2017,12,14,00,17,3.90
2017,12,14,00,18,3.90
2017,12,14,00,19,3.90
2017,12,14,00,20,3.80
2017,12,14,00,21,3.80
2017,12,14,00,22,3.80
2017,12,14,00,23,3.80
2017,12,14,00,24,3.80
2017,12,14,00,25,3.90
2017,12,14,00,26,3.90
2017,12,14,00,27,3.90
2017,12,14,00,28,4.00
2017,12,14,00,29,4.10
2017,12,14,00,30,4.10
2017,12,14,00,31,4.10
2017,12,14,00,32,4.10
2017,12,14,00,33,4.10
2017,12,14,00,34,4.00
2017,12,14,00,35,3.90
2017,12,14,00,36,3.90
2017,12,14,00,37,3.80
2017,12,14,00,38,3.80
2017,12,14,00,39,3.80
2017,12,14,00,40,3.80
2017,12,14,00,41,3.80
2017,12,14,00,42,3.80
2017,12,14,00,43,3.70
2017,12,14,00,44,3.70
2017,12,14,00,45,3.70
2017,12,14,00,46,3.60
2017,12,14,00,47,3.60
2017,12,14,00,48,3.60
2017,12,14,00,49,3.60
2017,12,14,00,50,3.60
2017,12,14,00,51,3.60
2017,12,14,00,52,3.60
2017,12,14,00,53,3.60
2017,12,14,00,54,3.70
2017,12,14,00,55,3.70
2017,12,14,00,56,3.70
2017,12,14,00,57,3.70
2017,12,14,00,58,3.70
2017,12,14,00,59,3.70
2017,12,14,01,00,3.70
2017,12,14,01,01,3.70
2017,12,14,01,02,3.70
2017,12,14,01,03,3.70
2017,12,14,01,04,3.70
2017,12,14,01,05,3.70
2017,12,14,01,06,3.70
2017,12,14,01,07,3.80
2017,12,14,01,08,3.80
2017,12,14,01,09,3.70
2017,12,14,01,10,3.70
2017,12,14,01,11,3.70
2017,12,14,01,12,3.70
2017,12,14,01,13,3.60
2017,12,14,01,14,3.60
2017,12,14,01,15,3.60
2017,12,14,01,16,3.50
2017,12,14,01,17,3.50
2017,12,14,01,18,3.50
2017,12,14,01,19,3.50
2017,12,14,01,20,3.40
2017,12,14,01,21,3.40
2017,12,14,01,22,3.40
2017,12,14,01,23,3.50
2017,12,14,01,24,3.50
2017,12,14,01,25,3.60
2017,12,14,01,26,3.80
2017,12,14,01,27,4.00
2017,12,14,01,28,4.20
2017,12,14,01,29,4.40
2017,12,14,01,30,4.50
2017,12,14,01,31,4.60
2017,12,14,01,32,4.70
2017,12,14,01,33,4.70
2017,12,14,01,34,4.70
2017,12,14,01,35,4.70
2017,12,14,01,36,4.70
2017,12,14,01,37,4.70
2017,12,14,01,38,4.70
2017,12,14,01,39,4.70
2017,12,14,01,40,4.70
2017,12,14,01,41,4.70
2017,12,14,01,42,4.70
2017,12,14,01,43,4.60
2017,12,14,01,44,4.60
2017,12,14,01,45,4.50
2017,12,14,01,46,4.50
2017,12,14,01,47,4.40
2017,12,14,01,48,4.40
2017,12,14,01,49,4.30
2017,12,14,01,50,4.30
2017,12,14,01,51,4.30
2017,12,14,01,52,4.20
2017,12,14,01,53,4.20
2017,12,14,01,54,4.10
2017,12,14,01,55,4.10
2017,12,14,01,56,4.00
2017,12,14,01,57,4.00
2017,12,14,01,58,3.90
2017,12,14,01,59,3.90
2017,12,14,02,00,3.90
2017,12,14,02,01,4.00
2017,12,14,02,02,4.00
2017,12,14,02,03,4.10
2017,12,14,02,04,4.10
2017,12,14,02,05,4.20
2017,12,14,02,06,4.20
2017,12,14,02,07,4.20
2017,12,14,02,08,4.30
2017,12,14,02,09,4.30
2017,12,14,02,10,4.30
2017,12,14,02,11,4.30
2017,12,14,02,12,4.40
2017,12,14,02,13,4.40
2017,12,14,02,14,4.40
2017,12,14,02,15,4.40
2017,12,14,02,16,4.40
2017,12,14,02,17,4.40
2017,12,14,02,18,4.50
2017,12,14,02,19,4.50
2017,12,14,02,20,4.60
2017,12,14,02,21,4.60
2017,12,14,02,22,4.60
2017,12,14,02,23,4.70
2017,12,14,02,24,4.70
2017,12,14,02,25,4.70
2017,12,14,02,26,4.70
2017,12,14,02,27,4.80
2017,12,14,02,28,4.80
2017,12,14,02,29,4.80
2017,12,14,02,30,4.80
2017,12,14,02,31,4.70
2017,12,14,02,32,4.70
2017,12,14,02,33,4.60
2017,12,14,02,34,4.50
2017,12,14,02,35,4.40
2017,12,14,02,36,4.30
2017,12,14,02,37,4.20
2017,12,14,02,38,4.10
2017,12,14,02,39,4.00
2017,12,14,02,40,4.00
2017,12,14,02,41,3.90
2017,12,14,02,42,3.90
2017,12,14,02,43,3.90
2017,12,14,02,44,3.90
2017,12,14,02,45,3.90
2017,12,14,02,46,3.90
2017,12,14,02,47,3.90
2017,12,14,02,48,3.90
2017,12,14,02,49,3.90
2017,12,14,02,50,3.90
2017,12,14,02,51,4.00
2017,12,14,02,52,4.00
2017,12,14,02,53,4.10
2017,12,14,02,54,4.20
2017,12,14,02,55,4.20
2017,12,14,02,56,4.30
2017,12,14,02,57,4.30
2017,12,14,02,58,4.40
2017,12,14,02,59,4.40
2017,12,14,03,00,4.40
2017,12,14,03,01,4.40
2017,12,14,03,02,4.40
2017,12,14,03,03,4.40
2017,12,14,03,04,4.50
2017,12,14,03,05,4.50
2017,12,14,03,06,4.50
2017,12,14,03,07,4.50
2017,12,14,03,08,4.50
2017,12,14,03,09,4.50
2017,12,14,03,10,4.60
2017,12,14,03,11,4.60
2017,12,14,03,12,4.70
2017,12,14,03,13,4.70
2017,12,14,03,14,4.70
2017,12,14,03,15,4.70
2017,12,14,03,16,4.70
2017,12,14,03,17,4.70
2017,12,14,03,18,4.70
2017,12,14,03,19,4.70
2017,12,14,03,20,4.70
2017,12,14,03,21,4.70
2017,12,14,03,22,4.70
2017,12,14,03,23,4.70
2017,12,14,03,24,4.70
2017,12,14,03,25,4.70
2017,12,14,03,26,4.70
2017,12,14,03,27,4.70
2017,12,14,03,28,4.70
2017,12,14,03,29,4.70
2017,12,14,03,30,4.70
2017,12,14,03,31,4.70
2017,12,14,03,32,4.70
2017,12,14,03,33,4.70
2017,12,14,03,34,4.60
2017,12,14,03,35,4.60
2017,12,14,03,36,4.60
2017,12,14,03,37,4.60
2017,12,14,03,38,4.60
2017,12,14,03,39,4.50
2017,12,14,03,40,4.50
2017,12,14,03,41,4.40
2017,12,14,03,42,4.40
2017,12,14,03,43,4.40
2017,12,14,03,44,4.50
2017,12,14,03,45,4.50
2017,12,14,03,46,4.60
2017,12,14,03,47,4.60
2017,12,14,03,48,4.60
2017,12,14,03,49,4.70
2017,12,14,03,50,4.70
2017,12,14,03,51,4.80
2017,12,14,03,52,4.80
2017,12,14,03,53,4.90
2017,12,14,03,54,4.90
2017,12,14,03,55,5.00
2017,12,14,03,56,5.00
2017,12,14,03,57,5.10
2017,12,14,03,58,5.10
2017,12,14,03,59,5.10
2017,12,14,04,00,5.10
2017,12,14,04,01,5.10
2017,12,14,04,02,5.10
2017,12,14,04,03,5.00
2017,12,14,04,04,4.90
2017,12,14,04,05,4.90
2017,12,14,04,06,4.90
2017,12,14,04,07,4.90
2017,12,14,04,08,4.90
2017,12,14,04,09,4.90
2017,12,14,04,10,4.90
2017,12,14,04,11,4.90
2017,12,14,04,12,4.90
2017,12,14,04,13,4.90
2017,12,14,04,14,4.90
2017,12,14,04,15,4.90
2017,12,14,04,16,5.00
2017,12,14,04,17,5.00
2017,12,14,04,18,5.10
2017,12,14,04,19,5.20
2017,12,14,04,20,5.20
2017,12,14,04,21,5.30
2017,12,14,04,22,5.30
2017,12,14,04,23,5.30
2017,12,14,04,24,5.30
2017,12,14,04,25,5.40
2017,12,14,04,26,5.40
2017,12,14,04,27,5.40
2017,12,14,04,28,5.40
2017,12,14,04,29,5.40
2017,12,14,04,30,5.40
2017,12,14,04,31,5.40
2017,12,14,04,32,5.40
2017,12,14,04,33,5.50
2017,12,14,04,34,5.60
2017,12,14,04,35,5.70
2017,12,14,04,36,5.70
2017,12,14,04,37,5.70
2017,12,14,04,38,5.80
2017,12,14,04,39,5.80
2017,12,14,04,40,5.80
2017,12,14,04,41,5.80
2017,12,14,04,42,5.80
2017,12,14,04,43,5.90
2017,12,14,04,44,5.90
2017,12,14,04,45,5.90
2017,12,14,04,46,5.90
2017,12,14,04,47,6.00
2017,12,14,04,48,6.00
2017,12,14,04,49,6.00
2017,12,14,04,50,6.00
2017,12,14,04,51,6.00
2017,12,14,04,52,5.90
2017,12,14,04,53,5.90
2017,12,14,04,54,5.90
2017,12,14,04,55,5.90
2017,12,14,04,56,5.90
2017,12,14,04,57,5.80
2017,12,14,04,58,5.80
2017,12,14,04,59,5.80
2017,12,14,05,00,5.80
2017,12,14,05,01,5.70
2017,12,14,05,02,5.70
2017,12,14,05,03,5.70
2017,12,14,05,04,5.60
2017,12,14,05,05,5.60
2017,12,14,05,06,5.50
2017,12,14,05,07,5.40
2017,12,14,05,08,5.40
2017,12,14,05,09,5.30
2017,12,14,05,10,5.30
2017,12,14,05,11,5.20
2017,12,14,05,12,5.10
2017,12,14,05,13,5.10
2017,12,14,05,14,5.00
2017,12,14,05,15,5.00
2017,12,14,05,16,5.00
2017,12,14,05,17,4.90
2017,12,14,05,18,4.90
2017,12,14,05,19,4.90
2017,12,14,05,20,4.90
2017,12,14,05,21,4.80
2017,12,14,05,22,4.80
2017,12,14,05,23,4.80
2017,12,14,05,24,4.80
2017,12,14,05,25,4.70
2017,12,14,05,26,4.70
2017,12,14,05,27,4.70
2017,12,14,05,28,4.70
2017,12,14,05,29,4.60
2017,12,14,05,30,4.60
2017,12,14,05,31,4.50
2017,12,14,05,32,4.50
2017,12,14,05,33,4.40
2017,12,14,05,34,4.30
2017,12,14,05,35,4.30
2017,12,14,05,36,4.20
2017,12,14,05,37,4.10
2017,12,14,05,38,4.00
2017,12,14,05,39,3.90
2017,12,14,05,40,3.90
2017,12,14,05,41,3.80
2017,12,14,05,42,3.70
2017,12,14,05,43,3.70
2017,12,14,05,44,3.70
2017,12,14,05,45,3.70
2017,12,14,05,46,3.70
2017,12,14,05,47,3.60
2017,12,14,05,48,3.60
2017,12,14,05,49,3.50
2017,12,14,05,50,3.50
2017,12,14,05,51,3.50
2017,12,14,05,52,3.40
2017,12,14,05,53,3.40
2017,12,14,05,54,3.40
2017,12,14,05,55,3.40
2017,12,14,05,56,3.30
2017,12,14,05,57,3.30
2017,12,14,05,58,3.30
2017,12,14,05,59,3.30
2017,12,14,06,00,3.30
2017,12,14,06,01,3.30
2017,12,14,06,02,3.30
2017,12,14,06,03,3.30
2017,12,14,06,04,3.30
2017,12,14,06,05,3.30
2017,12,14,06,06,3.30
2017,12,14,06,07,3.30
2017,12,14,06,08,3.30
2017,12,14,06,09,3.20
2017,12,14,06,10,3.20
2017,12,14,06,11,3.20
2017,12,14,06,12,3.20
2017,12,14,06,13,3.20
2017,12,14,06,14,3.20
2017,12,14,06,15,3.20
2017,12,14,06,16,3.20
2017,12,14,06,17,3.20
2017,12,14,06,18,3.30
2017,12,14,06,19,3.30
2017,12,14,06,20,3.30
2017,12,14,06,21,3.30
2017,12,14,06,22,3.30
2017,12,14,06,23,3.40
2017,12,14,06,24,3.40
2017,12,14,06,25,3.50
2017,12,14,06,26,3.60
2017,12,14,06,27,3.70
2017,12,14,06,28,3.80
2017,12,14,06,29,3.90
2017,12,14,06,30,4.00
2017,12,14,06,31,4.10
2017,12,14,06,32,4.20
2017,12,14,06,33,4.20
2017,12,14,06,34,4.30
2017,12,14,06,35,4.30
2017,12,14,06,36,4.30
2017,12,14,06,37,4.40
2017,12,14,06,38,4.40
2017,12,14,06,39,4.50
2017,12,14,06,40,4.50
2017,12,14,06,41,4.60
2017,12,14,06,42,4.60
2017,12,14,06,43,4.60
2017,12,14,06,44,4.50
2017,12,14,06,45,4.50
2017,12,14,06,46,4.40
2017,12,14,06,47,4.30
2017,12,14,06,48,4.30
2017,12,14,06,49,4.20
2017,12,14,06,50,4.10
2017,12,14,06,51,4.00
2017,12,14,06,52,3.90
2017,12,14,06,53,3.80
2017,12,14,06,54,3.80
2017,12,14,06,55,3.70
2017,12,14,06,56,3.60
2017,12,14,06,57,3.50
2017,12,14,06,58,3.40
2017,12,14,06,59,3.30
2017,12,14,07,00,3.20
2017,12,14,07,01,3.10
2017,12,14,07,02,3.10
2017,12,14,07,03,3.00
2017,12,14,07,04,2.90
2017,12,14,07,05,2.90
2017,12,14,07,06,2.90
2017,12,14,07,07,2.90
2017,12,14,07,08,3.00
2017,12,14,07,09,3.00
2017,12,14,07,10,3.00
2017,12,14,07,11,3.00
2017,12,14,07,12,2.90
2017,12,14,07,13,2.90
2017,12,14,07,14,2.90
2017,12,14,07,15,2.90
2017,12,14,07,16,2.90
2017,12,14,07,17,2.90
2017,12,14,07,18,2.90
2017,12,14,07,19,2.90
2017,12,14,07,20,3.00
2017,12,14,07,21,3.10
2017,12,14,07,22,3.10
2017,12,14,07,23,3.20
2017,12,14,07,24,3.20
2017,12,14,07,25,3.20
2017,12,14,07,26,3.30
2017,12,14,07,27,3.30
2017,12,14,07,28,3.30
2017,12,14,07,29,3.30
2017,12,14,07,30,3.30
2017,12,14,07,31,3.30
2017,12,14,07,32,3.30
2017,12,14,07,33,3.30
2017,12,14,07,34,3.30
2017,12,14,07,35,3.30
2017,12,14,07,36,3.30
2017,12,14,07,37,3.30
2017,12,14,07,38,3.30
2017,12,14,07,39,3.30
2017,12,14,07,40,3.30
2017,12,14,07,41,3.40
2017,12,14,07,42,3.40
2017,12,14,07,43,3.40
2017,12,14,07,44,3.40
2017,12,14,07,45,3.40
2017,12,14,07,46,3.40
2017,12,14,07,47,3.50
2017,12,14,07,48,3.60
2017,12,14,07,49,3.70
2017,12,14,07,50,3.70
2017,12,14,07,51,3.80
2017,12,14,07,52,3.80
2017,12,14,07,53,3.90
2017,12,14,07,54,4.00
2017,12,14,07,55,4.00
2017,12,14,07,56,4.10
2017,12,14,07,57,4.10
2017,12,14,07,58,4.00
2017,12,14,07,59,4.00
2017,12,14,08,00,3.90
2017,12,14,08,01,3.80
2017,12,14,08,02,3.80
2017,12,14,08,03,3.80
2017,12,14,08,04,3.80
2017,12,14,08,05,3.70
2017,12,14,08,06,3.70
2017,12,14,08,07,3.60
2017,12,14,08,08,3.60
2017,12,14,08,09,3.50
2017,12,14,08,10,3.40
2017,12,14,08,11,3.30
2017,12,14,08,12,3.30
2017,12,14,08,13,3.20
2017,12,14,08,14,3.20
2017,12,14,08,15,3.20
2017,12,14,08,16,3.20
2017,12,14,08,17,3.30
2017,12,14,08,18,3.50
2017,12,14,08,19,3.60
2017,12,14,08,20,3.70
2017,12,14,08,21,3.70
2017,12,14,08,22,3.70
2017,12,14,08,23,3.70
2017,12,14,08,24,3.60
2017,12,14,08,25,3.50
2017,12,14,08,26,3.40
2017,12,14,08,27,3.40
2017,12,14,08,28,3.50
2017,12,14,08,29,3.50
2017,12,14,08,30,3.50
2017,12,14,08,31,3.60
2017,12,14,08,32,3.60
2017,12,14,08,33,3.70
2017,12,14,08,34,3.80
2017,12,14,08,35,3.70
2017,12,14,08,36,3.70
2017,12,14,08,37,3.70
2017,12,14,08,38,3.70
2017,12,14,08,39,3.60
2017,12,14,08,40,3.60
2017,12,14,08,41,3.50
2017,12,14,08,42,3.50
2017,12,14,08,43,3.50
2017,12,14,08,44,3.40
2017,12,14,08,45,3.50
2017,12,14,08,46,3.50
2017,12,14,08,47,3.60
2017,12,14,08,48,3.60
2017,12,14,08,49,3.70
2017,12,14,08,50,3.70
2017,12,14,08,51,3.70
2017,12,14,08,52,3.80
2017,12,14,08,53,3.80
2017,12,14,08,54,3.90
2017,12,14,08,55,4.00
2017,12,14,08,56,4.10
2017,12,14,08,57,4.10
2017,12,14,08,58,4.20
2017,12,14,08,59,4.20
2017,12,14,09,00,4.20
2017,12,14,09,01,4.30
2017,12,14,09,02,4.40
2017,12,14,09,03,4.50
2017,12,14,09,04,4.60
2017,12,14,09,05,4.60
2017,12,14,09,06,4.70
2017,12,14,09,07,4.70
2017,12,14,09,08,4.70
2017,12,14,09,09,4.60
2017,12,14,09,10,4.50
2017,12,14,09,11,4.50
2017,12,14,09,12,4.40
2017,12,14,09,13,4.30
2017,12,14,09,14,4.30
2017,12,14,09,15,4.30
2017,12,14,09,16,4.30
2017,12,14,09,17,4.30
2017,12,14,09,18,4.30
2017,12,14,09,19,4.30
2017,12,14,09,20,4.30
2017,12,14,09,21,4.30
2017,12,14,09,22,4.40
2017,12,14,09,23,4.50
2017,12,14,09,24,4.50
2017,12,14,09,25,4.70
2017,12,14,09,26,4.80
2017,12,14,09,27,4.80
2017,12,14,09,28,4.90
2017,12,14,09,29,5.00
2017,12,14,09,30,5.10
2017,12,14,09,31,5.20
2017,12,14,09,32,5.30
2017,12,14,09,33,5.30
2017,12,14,09,34,5.30
2017,12,14,09,35,5.30
2017,12,14,09,36,5.30
2017,12,14,09,37,5.40
2017,12,14,09,38,5.40
2017,12,14,09,39,5.50
2017,12,14,09,40,5.50
2017,12,14,09,41,5.60
2017,12,14,09,42,5.60
2017,12,14,09,43,5.70
2017,12,14,09,44,5.70
2017,12,14,09,45,5.80
2017,12,14,09,46,5.80
2017,12,14,09,47,5.90
2017,12,14,09,48,5.90
2017,12,14,09,49,6.00
2017,12,14,09,50,6.10
2017,12,14,09,51,6.10
2017,12,14,09,52,6.20
2017,12,14,09,53,6.30
2017,12,14,09,54,6.40
2017,12,14,09,55,6.50
2017,12,14,09,56,6.60
2017,12,14,09,57,6.60
2017,12,14,09,58,6.70
2017,12,14,09,59,6.70
2017,12,14,10,00,6.70
2017,12,14,10,01,6.80
2017,12,14,10,02,6.80
2017,12,14,10,03,6.80
2017,12,14,10,04,6.80
2017,12,14,10,05,6.80
2017,12,14,10,06,6.80
2017,12,14,10,07,6.90
2017,12,14,10,08,6.90
2017,12,14,10,09,6.90
2017,12,14,10,10,7.00
2017,12,14,10,11,7.00
2017,12,14,10,12,7.10
2017,12,14,10,13,7.20
2017,12,14,10,14,7.20
2017,12,14,10,15,7.20
2017,12,14,10,16,7.30
2017,12,14,10,17,7.30
2017,12,14,10,18,7.40
2017,12,14,10,19,7.40
2017,12,14,10,20,7.50
2017,12,14,10,21,7.50
2017,12,14,10,22,7.60
2017,12,14,10,23,7.60
2017,12,14,10,24,7.60
2017,12,14,10,25,7.60
2017,12,14,10,26,7.60
2017,12,14,10,27,7.50
2017,12,14,10,28,7.50
2017,12,14,10,29,7.40
2017,12,14,10,30,7.40
2017,12,14,10,31,7.40
2017,12,14,10,32,7.30
2017,12,14,10,33,7.30
2017,12,14,10,34,7.30
2017,12,14,10,35,7.30
2017,12,14,10,36,7.30
2017,12,14,10,37,7.30
2017,12,14,10,38,7.30
2017,12,14,10,39,7.30
2017,12,14,10,40,7.30
2017,12,14,10,41,7.30
2017,12,14,10,42,7.30
2017,12,14,10,43,7.40
2017,12,14,10,44,7.40
2017,12,14,10,45,7.40
2017,12,14,10,46,7.50
2017,12,14,10,47,7.50
2017,12,14,10,48,7.60
2017,12,14,10,49,7.60
2017,12,14,10,50,7.70
2017,12,14,10,51,7.70
2017,12,14,10,52,7.70
2017,12,14,10,53,7.70
2017,12,14,10,54,7.80
2017,12,14,10,55,7.80
2017,12,14,10,56,7.80
2017,12,14,10,57,7.80
2017,12,14,10,58,7.90
2017,12,14,10,59,7.90
2017,12,14,11,00,7.90
2017,12,14,11,01,8.00
2017,12,14,11,02,8.00
2017,12,14,11,03,8.00
2017,12,14,11,04,8.10
2017,12,14,11,05,8.10
2017,12,14,11,06,8.20
2017,12,14,11,07,8.20
2017,12,14,11,08,8.20
2017,12,14,11,09,8.30
2017,12,14,11,10,8.30
2017,12,14,11,11,8.40
2017,12,14,11,12,8.40
2017,12,14,11,13,8.50
2017,12,14,11,14,8.60
2017,12,14,11,15,8.70
2017,12,14,11,16,8.70
2017,12,14,11,17,8.80
2017,12,14,11,18,8.80
2017,12,14,11,19,8.80
2017,12,14,11,20,8.80
2017,12,14,11,21,8.90
2017,12,14,11,22,8.90
2017,12,14,11,23,8.90
2017,12,14,11,24,8.90
2017,12,14,11,25,9.00
2017,12,14,11,26,9.00
2017,12,14,11,27,9.10
2017,12,14,11,28,9.10
2017,12,14,11,29,9.10
2017,12,14,11,30,9.10
2017,12,14,11,31,9.10
2017,12,14,11,32,9.10
2017,12,14,11,33,9.20
2017,12,14,11,34,9.20
2017,12,14,11,35,9.20
2017,12,14,11,36,9.20
2017,12,14,11,37,9.30
2017,12,14,11,38,9.30
2017,12,14,11,39,9.30
2017,12,14,11,40,9.30
2017,12,14,11,41,9.30
2017,12,14,11,42,9.30
2017,12,14,11,43,9.30
2017,12,14,11,44,9.40
2017,12,14,11,45,9.40
2017,12,14,11,46,9.40
2017,12,14,11,47,9.40
2017,12,14,11,48,9.40
2017,12,14,11,49,9.40
2017,12,14,11,50,9.40
2017,12,14,11,51,9.40
2017,12,14,11,52,9.30
2017,12,14,11,53,9.30
2017,12,14,11,54,9.30
2017,12,14,11,55,9.30
2017,12,14,11,56,9.30
2017,12,14,11,57,9.40
2017,12,14,11,58,9.40
2017,12,14,11,59,9.40
2017,12,14,12,00,9.40
2017,12,14,12,01,9.40
2017,12,14,12,02,9.40
2017,12,14,12,03,9.30
2017,12,14,12,04,9.30
2017,12,14,12,05,9.30
2017,12,14,12,06,9.30
2017,12,14,12,07,9.30
2017,12,14,12,08,9.20
2017,12,14,12,09,9.20
2017,12,14,12,10,9.20
2017,12,14,12,11,9.20
2017,12,14,12,12,9.20
2017,12,14,12,13,9.20
2017,12,14,12,14,9.20
2017,12,14,12,15,9.20
2017,12,14,12,16,9.20
2017,12,14,12,17,9.20
2017,12,14,12,18,9.20
2017,12,14,12,19,9.20
2017,12,14,12,20,9.20
2017,12,14,12,21,9.20
2017,12,14,12,22,9.20
2017,12,14,12,23,9.20
2017,12,14,12,24,9.30
2017,12,14,12,25,9.30
2017,12,14,12,26,9.30
2017,12,14,12,27,9.30
2017,12,14,12,28,9.30
2017,12,14,12,29,9.30
2017,12,14,12,30,9.30
2017,12,14,12,31,9.30
2017,12,14,12,32,9.30
2017,12,14,12,33,9.30
2017,12,14,12,34,9.30
2017,12,14,12,35,9.30
2017,12,14,12,36,9.30
2017,12,14,12,37,9.30
2017,12,14,12,38,9.30
2017,12,14,12,39,9.30
2017,12,14,12,40,9.30
2017,12,14,12,41,9.30
2017,12,14,12,42,9.40
2017,12,14,12,43,9.40
2017,12,14,12,44,9.40
2017,12,14,12,45,9.40
2017,12,14,12,46,9.50
2017,12,14,12,47,9.50
2017,12,14,12,48,9.60
2017,12,14,12,49,9.60
2017,12,14,12,50,9.60
2017,12,14,12,51,9.60
2017,12,14,12,52,9.60
2017,12,14,12,53,9.60
2017,12,14,12,54,9.70
2017,12,14,12,55,9.70
2017,12,14,12,56,9.80
2017,12,14,12,57,9.80
2017,12,14,12,58,9.80
2017,12,14,12,59,9.80
2017,12,14,13,00,9.90
2017,12,14,13,01,9.90
2017,12,14,13,02,9.90
2017,12,14,13,03,9.90
2017,12,14,13,04,9.90
2017,12,14,13,05,9.90
2017,12,14,13,06,9.90
2017,12,14,13,07,9.90
2017,12,14,13,08,9.90
2017,12,14,13,09,9.90
2017,12,14,13,10,9.80
2017,12,14,13,11,9.80
2017,12,14,13,12,9.70
2017,12,14,13,13,9.60
2017,12,14,13,14,9.60
2017,12,14,13,15,9.50
2017,12,14,13,16,9.40
2017,12,14,13,17,9.40
2017,12,14,13,18,9.30
2017,12,14,13,19,9.20
2017,12,14,13,20,9.20
2017,12,14,13,21,9.20
2017,12,14,13,22,9.20
2017,12,14,13,23,9.10
2017,12,14,13,24,9.10
2017,12,14,13,25,9.20
2017,12,14,13,26,9.20
2017,12,14,13,27,9.20
2017,12,14,13,28,9.20
2017,12,14,13,29,9.10
2017,12,14,13,30,9.10
2017,12,14,13,31,9.10
2017,12,14,13,32,9.10
2017,12,14,13,33,9.10
2017,12,14,13,34,9.10
2017,12,14,13,35,9.20
2017,12,14,13,36,9.20
2017,12,14,13,37,9.20
2017,12,14,13,38,9.20
2017,12,14,13,39,9.20
2017,12,14,13,40,9.20
2017,12,14,13,41,9.20
2017,12,14,13,42,9.20
2017,12,14,13,43,9.20
2017,12,14,13,44,9.20
2017,12,14,13,45,9.20
2017,12,14,13,46,9.20
2017,12,14,13,47,9.20
2017,12,14,13,48,9.30
2017,12,14,13,49,9.30
2017,12,14,13,50,9.40
2017,12,14,13,51,9.40
2017,12,14,13,52,9.50
2017,12,14,13,53,9.50
2017,12,14,13,54,9.60
2017,12,14,13,55,9.60
2017,12,14,13,56,9.60
2017,12,14,13,57,9.70
2017,12,14,13,58,9.70
2017,12,14,13,59,9.70
2017,12,14,14,00,9.80
2017,12,14,14,01,9.80
2017,12,14,14,02,9.80
2017,12,14,14,03,9.80
2017,12,14,14,04,9.80
2017,12,14,14,05,9.80
2017,12,14,14,06,9.80
2017,12,14,14,07,9.80
2017,12,14,14,08,9.80
2017,12,14,14,09,9.90
2017,12,14,14,10,9.90
2017,12,14,14,11,9.90
2017,12,14,14,12,9.90
2017,12,14,14,13,10.00
2017,12,14,14,14,10.00
2017,12,14,14,15,10.00
2017,12,14,14,16,10.10
2017,12,14,14,17,10.10
2017,12,14,14,18,10.10
2017,12,14,14,19,10.10
2017,12,14,14,20,10.10
2017,12,14,14,21,10.10
2017,12,14,14,22,10.20
2017,12,14,14,23,10.20
2017,12,14,14,24,10.20
2017,12,14,14,25,10.20
2017,12,14,14,26,10.20
2017,12,14,14,27,10.20
2017,12,14,14,28,10.10
2017,12,14,14,29,10.10
2017,12,14,14,30,10.10
2017,12,14,14,31,10.10
2017,12,14,14,32,10.10
2017,12,14,14,33,10.00
2017,12,14,14,34,10.00
2017,12,14,14,35,9.90
2017,12,14,14,36,9.90
2017,12,14,14,37,9.90
2017,12,14,14,38,9.90
2017,12,14,14,39,9.90
2017,12,14,14,40,9.90
2017,12,14,14,41,9.80
2017,12,14,14,42,9.80
2017,12,14,14,43,9.80
2017,12,14,14,44,9.80
2017,12,14,14,45,9.70
2017,12,14,14,46,9.70
2017,12,14,14,47,9.70
2017,12,14,14,48,9.70
2017,12,14,14,49,9.60
2017,12,14,14,50,9.60
2017,12,14,14,51,9.50
2017,12,14,14,52,9.40
2017,12,14,14,53,9.40
2017,12,14,14,54,9.30
2017,12,14,14,55,9.30
2017,12,14,14,56,9.30
2017,12,14,14,57,9.20
2017,12,14,14,58,9.20
2017,12,14,14,59,9.20
2017,12,14,15,00,9.10
2017,12,14,15,01,9.10
2017,12,14,15,02,9.10
2017,12,14,15,03,9.10
2017,12,14,15,04,9.10
2017,12,14,15,05,9.00
2017,12,14,15,06,9.00
2017,12,14,15,07,9.00
2017,12,14,15,08,8.90
2017,12,14,15,09,8.90
2017,12,14,15,10,8.90
2017,12,14,15,11,8.90
2017,12,14,15,12,8.90
2017,12,14,15,13,8.90
2017,12,14,15,14,8.80
2017,12,14,15,15,8.80
2017,12,14,15,16,8.80
2017,12,14,15,17,8.80
2017,12,14,15,18,8.80
2017,12,14,15,19,8.80
2017,12,14,15,20,8.80
2017,12,14,15,21,8.80
2017,12,14,15,22,8.80
2017,12,14,15,23,8.80
2017,12,14,15,24,8.80
2017,12,14,15,25,8.80
2017,12,14,15,26,8.80
2017,12,14,15,27,8.80
2017,12,14,15,28,8.80
2017,12,14,15,29,8.80
2017,12,14,15,30,8.80
2017,12,14,15,31,8.80
2017,12,14,15,32,8.70
2017,12,14,15,33,8.70
2017,12,14,15,34,8.70
2017,12,14,15,35,8.70
2017,12,14,15,36,8.70
2017,12,14,15,37,8.70
2017,12,14,15,38,8.70
2017,12,14,15,39,8.60
2017,12,14,15,40,8.60
2017,12,14,15,41,8.60
2017,12,14,15,42,8.60
2017,12,14,15,43,8.50
2017,12,14,15,44,8.50
2017,12,14,15,45,8.50
2017,12,14,15,46,8.50
2017,12,14,15,47,8.40
2017,12,14,15,48,8.40
2017,12,14,15,49,8.40
2017,12,14,15,50,8.40
2017,12,14,15,51,8.40
2017,12,14,15,52,8.40
2017,12,14,15,53,8.30
2017,12,14,15,54,8.30
2017,12,14,15,55,8.30
2017,12,14,15,56,8.30
2017,12,14,15,57,8.30
2017,12,14,15,58,8.30
2017,12,14,15,59,8.20
2017,12,14,16,00,8.20
2017,12,14,16,01,8.20
2017,12,14,16,02,8.20
2017,12,14,16,03,8.10
2017,12,14,16,04,8.10
2017,12,14,16,05,8.10
2017,12,14,16,06,8.00
2017,12,14,16,07,8.00
2017,12,14,16,08,7.90
2017,12,14,16,09,7.90
2017,12,14,16,10,7.80
2017,12,14,16,11,7.80
2017,12,14,16,12,7.80
2017,12,14,16,13,7.70
2017,12,14,16,14,7.70
2017,12,14,16,15,7.60
2017,12,14,16,16,7.60
2017,12,14,16,17,7.60
2017,12,14,16,18,7.50
2017,12,14,16,19,7.50
2017,12,14,16,20,7.40
2017,12,14,16,21,7.40
2017,12,14,16,22,7.30
2017,12,14,16,23,7.30
2017,12,14,16,24,7.20
2017,12,14,16,25,7.20
2017,12,14,16,26,7.20
2017,12,14,16,27,7.20
2017,12,14,16,28,7.10
2017,12,14,16,29,7.10
2017,12,14,16,30,7.00
2017,12,14,16,31,7.00
2017,12,14,16,32,6.90
2017,12,14,16,33,6.90
2017,12,14,16,34,6.80
2017,12,14,16,35,6.80
2017,12,14,16,36,6.80
2017,12,14,16,37,6.70
2017,12,14,16,38,6.70
2017,12,14,16,39,6.70
2017,12,14,16,40,6.60
2017,12,14,16,41,6.60
2017,12,14,16,42,6.60
2017,12,14,16,43,6.50
2017,12,14,16,44,6.50
2017,12,14,16,45,6.50
2017,12,14,16,46,6.40
2017,12,14,16,47,6.40
2017,12,14,16,48,6.40
2017,12,14,16,49,6.30
2017,12,14,16,50,6.30
2017,12,14,16,51,6.30
2017,12,14,16,52,6.30
2017,12,14,16,53,6.20
2017,12,14,16,54,6.20
2017,12,14,16,55,6.20
2017,12,14,16,56,6.10
2017,12,14,16,57,6.10
2017,12,14,16,58,6.10
2017,12,14,16,59,6.10
2017,12,14,17,00,6.00
2017,12,14,17,01,6.00
2017,12,14,17,02,6.00
2017,12,14,17,03,5.90
2017,12,14,17,04,5.90
2017,12,14,17,05,5.90
2017,12,14,17,06,5.80
2017,12,14,17,07,5.80
2017,12,14,17,08,5.80
2017,12,14,17,09,5.80
2017,12,14,17,10,5.70
2017,12,14,17,11,5.70
2017,12,14,17,12,5.70
2017,12,14,17,13,5.70
2017,12,14,17,14,5.60
2017,12,14,17,15,5.60
2017,12,14,17,16,5.60
2017,12,14,17,17,5.50
2017,12,14,17,18,5.40
2017,12,14,17,19,5.40
2017,12,14,17,20,5.40
2017,12,14,17,21,5.30
2017,12,14,17,22,5.30
2017,12,14,17,23,5.30
2017,12,14,17,24,5.20
2017,12,14,17,25,5.20
2017,12,14,17,26,5.20
2017,12,14,17,27,5.10
2017,12,14,17,28,5.10
2017,12,14,17,29,5.10
2017,12,14,17,30,5.10
2017,12,14,17,31,5.00
2017,12,14,17,32,5.00
2017,12,14,17,33,4.90
2017,12,14,17,34,5.00
2017,12,14,17,35,4.90
2017,12,14,17,36,4.90
2017,12,14,17,37,4.90
2017,12,14,17,38,4.90
2017,12,14,17,39,4.90
2017,12,14,17,40,4.90
2017,12,14,17,41,4.90
2017,12,14,17,42,4.90
2017,12,14,17,43,4.90
2017,12,14,17,44,4.90
2017,12,14,17,45,4.90
2017,12,14,17,46,4.90
2017,12,14,17,47,4.90
2017,12,14,17,48,4.90
2017,12,14,17,49,4.90
2017,12,14,17,50,4.90
2017,12,14,17,51,4.90
2017,12,14,17,52,4.90
2017,12,14,17,53,4.90
2017,12,14,17,54,4.90
2017,12,14,17,55,4.80
2017,12,14,17,56,4.80
2017,12,14,17,57,4.80
2017,12,14,17,58,4.80
2017,12,14,17,59,4.80
2017,12,14,18,00,4.80
2017,12,14,18,01,4.70
2017,12,14,18,02,4.70
2017,12,14,18,03,4.70
2017,12,14,18,04,4.70
2017,12,14,18,05,4.70